• In Deutschland
  • Länderverzeichnis
  • Für 7 Tage
  • Wassertemperatur
  • Satellitenkarten
  • Wetterkarte
  • Widgets
  • user-avatar
    Anmelden

    Stündliche Wetter Andora

    Heute, 23 Juli, Sonntag

    Zeit Temperatur Niederschläge Wind Luftdruck Luftfeuchtigkeit
    00:00 +13°C° 0 mm 1 m/S 628 mmHg 91%
    01:00 +13°C° 0 mm 1 m/S 628 mmHg 92%
    02:00 +12°C° 0 mm 1 m/S 628 mmHg 92%
    03:00 +12°C° 0 mm 1 m/S 628 mmHg 93%
    04:00 +13°C° 0 mm 1 m/S 628 mmHg 91%
    05:00 +13°C° 0 mm 1 m/S 629 mmHg 90%
    06:00 +13°C° 0 mm 1 m/S 629 mmHg 89%
    07:00 +15°C° 0 mm 1 m/S 630 mmHg 79%
    08:00 +17°C° 0 mm 2 m/S 630 mmHg 69%
    09:00 +19°C° 0 mm 2 m/S 631 mmHg 60%
    10:00 +20°C° 0 mm 3 m/S 632 mmHg 54%
    11:00 +21°C° 0 mm 3 m/S 632 mmHg 49%
    12:00 +22°C° 0 mm 4 m/S 632 mmHg 43%
    13:00 +22°C° 0,2 mm 4 m/S 632 mmHg 48%
    14:00 +21°C° 0,2 mm 3 m/S 631 mmHg 52%
    15:00 +21°C° 0,2 mm 3 m/S 631 mmHg 56%
    16:00 +19°C° 1,3 mm 3 m/S 630 mmHg 63%
    17:00 +18°C° 1,3 mm 2 m/S 630 mmHg 69%
    18:00 +17°C° 1,3 mm 2 m/S 629 mmHg 76%
    19:00 +15°C° 0,2 mm 1 m/S 629 mmHg 82%
    20:00 +14°C° 0,2 mm 1 m/S 628 mmHg 87%
    21:00 +13°C° 0,2 mm 1 m/S 628 mmHg 93%
    22:00 +12°C° 0 mm 1 m/S 628 mmHg 93%
    23:00 +12°C° 0 mm 1 m/S 628 mmHg 94%

    Morgen, 24 Juli, Montag

    Zeit Temperatur Niederschläge Wind Luftdruck Luftfeuchtigkeit
    00:00 +12°C° 0 mm 1 m/S 628 mmHg 94%
    01:00 +12°C° 0,1 mm 1 m/S 627 mmHg 94%
    02:00 +11°C° 0,1 mm 1 m/S 627 mmHg 94%
    03:00 +11°C° 0,1 mm 1 m/S 627 mmHg 94%
    04:00 +12°C° 0,1 mm 1 m/S 627 mmHg 92%
    05:00 +12°C° 0,1 mm 2 m/S 627 mmHg 89%
    06:00 +12°C° 0,1 mm 2 m/S 627 mmHg 87%
    07:00 +14°C° 0 mm 2 m/S 628 mmHg 78%
    08:00 +15°C° 0 mm 2 m/S 628 mmHg 70%
    09:00 +17°C° 0 mm 3 m/S 629 mmHg 61%
    10:00 +17°C° 0 mm 3 m/S 629 mmHg 56%
    11:00 +18°C° 0 mm 3 m/S 629 mmHg 51%
    12:00 +19°C° 0 mm 3 m/S 629 mmHg 46%
    13:00 +19°C° 0 mm 4 m/S 629 mmHg 45%
    14:00 +19°C° 0 mm 4 m/S 629 mmHg 45%
    15:00 +19°C° 0 mm 4 m/S 629 mmHg 45%
    16:00 +18°C° 0 mm 4 m/S 629 mmHg 49%
    17:00 +17°C° 0 mm 4 m/S 628 mmHg 53%
    18:00 +15°C° 0 mm 4 m/S 628 mmHg 58%
    19:00 +13°C° 0 mm 3 m/S 627 mmHg 65%
    20:00 +11°C° 0 mm 3 m/S 627 mmHg 71%
    21:00 +9°C° 0 mm 3 m/S 627 mmHg 78%
    22:00 +9°C° 0 mm 3 m/S 626 mmHg 77%
    23:00 +8°C° 0 mm 3 m/S 626 mmHg 76%

    übermorgen, 25 Juli, Dienstag

    Zeit Temperatur Niederschläge Wind Luftdruck Luftfeuchtigkeit
    00:00 +7°C° 0 mm 3 m/S 626 mmHg 75%
    01:00 +7°C° 0 mm 3 m/S 626 mmHg 74%
    02:00 +7°C° 0 mm 3 m/S 625 mmHg 74%
    03:00 +7°C° 0 mm 3 m/S 625 mmHg 73%
    04:00 +7°C° 0 mm 3 m/S 625 mmHg 72%
    05:00 +8°C° 0 mm 3 m/S 625 mmHg 72%
    06:00 +8°C° 0 mm 3 m/S 625 mmHg 71%
    07:00 +10°C° 0 mm 3 m/S 626 mmHg 64%
    08:00 +12°C° 0 mm 3 m/S 627 mmHg 57%
    09:00 +14°C° 0 mm 3 m/S 627 mmHg 50%
    10:00 +16°C° 0 mm 3 m/S 628 mmHg 46%
    11:00 +17°C° 0 mm 4 m/S 628 mmHg 43%
    12:00 +18°C° 0 mm 4 m/S 628 mmHg 39%
    13:00 +18°C° 0 mm 4 m/S 628 mmHg 39%
    14:00 +19°C° 0 mm 4 m/S 627 mmHg 38%
    15:00 +19°C° 0 mm 4 m/S 627 mmHg 38%
    16:00 +17°C° 0,2 mm 4 m/S 627 mmHg 44%
    17:00 +15°C° 0,2 mm 4 m/S 626 mmHg 50%
    18:00 +14°C° 0,2 mm 3 m/S 626 mmHg 57%
    19:00 +12°C° 0,2 mm 3 m/S 626 mmHg 66%
    20:00 +10°C° 0,2 mm 3 m/S 625 mmHg 75%
    21:00 +9°C° 0,2 mm 3 m/S 625 mmHg 84%
    22:00 +8°C° 0 mm 3 m/S 625 mmHg 84%
    23:00 +8°C° 0 mm 3 m/S 625 mmHg 84%

    26 Juli, Mittwoch

    Zeit Temperatur Niederschläge Wind Luftdruck Luftfeuchtigkeit
    00:00 +8°C° 0 mm 3 m/S 625 mmHg 84%
    01:00 +7°C° 0 mm 3 m/S 624 mmHg 83%
    02:00 +7°C° 0 mm 3 m/S 624 mmHg 82%
    03:00 +5°C° 0 mm 3 m/S 623 mmHg 81%
    04:00 +7°C° 0 mm 3 m/S 624 mmHg 77%
    05:00 +7°C° 0 mm 3 m/S 624 mmHg 72%
    06:00 +7°C° 0 mm 3 m/S 624 mmHg 67%
    07:00 +10°C° 0 mm 3 m/S 625 mmHg 59%
    08:00 +12°C° 0 mm 3 m/S 626 mmHg 51%
    09:00 +16°C° 0 mm 3 m/S 627 mmHg 42%
    10:00 +17°C° 0 mm 3 m/S 627 mmHg 39%
    11:00 +18°C° 0 mm 3 m/S 628 mmHg 36%
    12:00 +19°C° 0 mm 3 m/S 628 mmHg 33%
    13:00 +20°C° 0 mm 3 m/S 628 mmHg 33%
    14:00 +20°C° 0 mm 4 m/S 628 mmHg 33%
    15:00 +20°C° 0 mm 4 m/S 627 mmHg 33%
    16:00 +19°C° 0 mm 3 m/S 627 mmHg 38%
    17:00 +18°C° 0 mm 3 m/S 627 mmHg 44%
    18:00 +17°C° 0 mm 3 m/S 626 mmHg 49%
    19:00 +14°C° 0 mm 3 m/S 626 mmHg 60%
    20:00 +12°C° 0 mm 2 m/S 626 mmHg 70%
    21:00 +9°C° 0 mm 2 m/S 625 mmHg 81%
    22:00 +9°C° 0 mm 2 m/S 625 mmHg 82%
    23:00 +9°C° 0 mm 2 m/S 625 mmHg 83%

    27 Juli, Donnerstag

    Zeit Temperatur Niederschläge Wind Luftdruck Luftfeuchtigkeit
    00:00 +8°C° 0 mm 2 m/S 625 mmHg 84%
    01:00 +8°C° 0 mm 2 m/S 625 mmHg 82%
    02:00 +8°C° 0 mm 2 m/S 625 mmHg 80%
    03:00 +8°C° 0 mm 2 m/S 625 mmHg 79%
    04:00 +9°C° 0 mm 2 m/S 625 mmHg 75%
    05:00 +9°C° 0 mm 2 m/S 625 mmHg 72%
    06:00 +11°C° 0 mm 1 m/S 626 mmHg 69%
    07:00 +14°C° 0 mm 1 m/S 627 mmHg 60%
    08:00 +18°C° 0 mm 1 m/S 628 mmHg 51%
    09:00 +21°C° 0 mm 1 m/S 629 mmHg 42%
    10:00 +22°C° 0 mm 1 m/S 629 mmHg 39%
    11:00 +23°C° 0 mm 1 m/S 630 mmHg 37%
    12:00 +24°C° 0 mm 2 m/S 630 mmHg 35%
    13:00 +24°C° 0 mm 2 m/S 630 mmHg 35%
    14:00 +25°C° 0 mm 2 m/S 630 mmHg 36%
    15:00 +25°C° 0 mm 2 m/S 629 mmHg 37%
    16:00 +24°C° 0 mm 2 m/S 629 mmHg 42%
    17:00 +23°C° 0 mm 1 m/S 629 mmHg 47%
    18:00 +21°C° 0 mm 1 m/S 628 mmHg 52%
    19:00 +19°C° 0 mm 1 m/S 628 mmHg 59%
    20:00 +16°C° 0 mm 1 m/S 628 mmHg 67%
    21:00 +14°C° 0 mm 1 m/S 627 mmHg 75%
    22:00 +14°C° 0 mm 1 m/S 627 mmHg 76%
    23:00 +13°C° 0 mm 1 m/S 627 mmHg 77%

    28 Juli, Freitag

    Zeit Temperatur Niederschläge Wind Luftdruck Luftfeuchtigkeit
    00:00 +13°C° 0 mm 1 m/S 627 mmHg 78%
    01:00 +13°C° 0 mm 1 m/S 627 mmHg 77%
    02:00 +13°C° 0 mm 1 m/S 627 mmHg 77%
    03:00 +13°C° 0 mm 1 m/S 627 mmHg 77%
    04:00 +13°C° 0 mm 1 m/S 627 mmHg 75%
    05:00 +14°C° 0 mm 1 m/S 628 mmHg 73%
    06:00 +15°C° 0 mm 1 m/S 628 mmHg 72%
    07:00 +18°C° 0 mm 1 m/S 630 mmHg 63%
    08:00 +21°C° 0 mm 1 m/S 631 mmHg 55%
    09:00 +23°C° 0 mm 1 m/S 632 mmHg 47%
    10:00 +24°C° 0 mm 1 m/S 632 mmHg 44%
    11:00 +25°C° 0 mm 2 m/S 632 mmHg 42%
    12:00 +26°C° 0 mm 2 m/S 632 mmHg 40%
    13:00 +26°C° 0,1 mm 2 m/S 632 mmHg 42%
    14:00 +26°C° 0,1 mm 2 m/S 632 mmHg 43%
    15:00 +25°C° 0,1 mm 2 m/S 632 mmHg 45%
    16:00 +25°C° 0 mm 2 m/S 631 mmHg 48%
    17:00 +24°C° 0 mm 2 m/S 631 mmHg 51%
    18:00 +23°C° 0 mm 1 m/S 631 mmHg 55%
    19:00 +21°C° 0 mm 1 m/S 630 mmHg 63%
    20:00 +19°C° 0 mm 1 m/S 630 mmHg 72%
    21:00 +15°C° 0 mm 1 m/S 630 mmHg 80%
    22:00 +15°C° 0 mm 1 m/S 630 mmHg 81%
    23:00 +15°C° 0 mm 1 m/S 630 mmHg 82%
    Mehr zeigen